Total_Precipitation_Accumulation
0.04 0.09 0.15 0.17 0.18 0.16 0.12 0.11 0.16 0.20 0.38 0.42 0.54 0.71 0.88 0.90 0.80 0.73 0.80 0.83 0.83 0.91 1.09 1.22 1.40 1.44 1.41 1.43 1.49 1.62 1.72 1.79 1.99 2.17 2.22 2.12 2.08 2.15 2.17 2.22 2.15 2.31 2.33 2.36
0.05 0.08 0.14 0.16 0.18 0.13 0.09 0.09 0.13 0.19 0.31 0.39 0.54 0.65 0.73 0.72 0.70 0.81 0.85 0.84 0.78 0.89 1.11 1.18 1.22 1.31 1.33 1.38 1.45 1.52 1.60 1.76 1.99 2.20 2.32 2.30 2.34 2.49 2.50 2.45 2.56 2.69 2.65 2.64
0.08 0.11 0.13 0.22 0.18 0.14 0.14 0.13 0.16 0.25 0.31 0.37 0.50 0.65 0.78 0.80 0.84 0.89 0.90 0.86 0.85 0.86 0.99 1.21 1.15 1.16 1.28 1.39 1.53 1.67 1.91 2.10 2.18 2.33 2.50 2.50 2.45 2.49 2.53 2.57 2.57 2.65 2.66 2.72
0.14 0.17 0.25 0.25 0.21 0.20 0.23 0.28 0.28 0.32 0.38 0.46 0.56 0.70 0.83 0.88 0.87 0.99 1.08 1.15 1.20 1.26 1.26 1.35 1.30 1.31 1.40 1.54 1.70 1.77 1.86 2.03 2.16 2.36 2.50 2.57 2.65 2.64 2.72 2.84 2.86 2.86 2.84 2.83
0.24 0.26 0.30 0.31 0.31 0.34 0.39 0.51 0.55 0.60 0.65 0.67 0.70 0.75 0.90 1.02 1.09 1.19 1.16 1.23 1.35 1.42 1.45 1.46 1.51 1.64 1.81 1.85 1.99 2.15 2.27 2.43 2.52 2.56 2.65 2.70 2.73 2.87 2.99 3.11 3.10 3.11 3.07 3.03
0.34 0.43 0.50 0.51 0.49 0.46 0.55 0.88 0.78 0.86 0.96 0.96 1.02 1.26 1.33 1.32 1.31 1.35 1.32 1.36 1.45 1.47 1.52 1.72 1.78 1.85 2.02 2.21 2.35 2.54 2.71 2.82 2.89 2.93 2.94 2.89 2.88 2.99 3.06 3.11 3.12 3.13 3.04 3.06
0.47 0.50 0.54 0.55 0.55 0.55 0.96 1.32 1.25 1.26 1.30 1.23 1.37 1.47 1.35 1.27 1.40 1.46 1.52 1.58 1.60 1.62 1.71 1.84 1.92 2.00 2.17 2.45 2.70 2.91 2.95 2.99 3.03 3.10 3.22 3.32 3.36 3.17 3.02 3.01 3.08 3.17 3.14 3.18
0.72 0.88 0.95 0.67 0.74 1.11 1.38 1.32 1.54 1.43 1.28 1.30 1.31 1.27 1.22 1.23 1.40 1.57 1.69 1.73 1.76 1.78 1.82 1.87 2.01 2.16 2.28 2.52 2.66 2.85 2.89 3.00 3.06 3.07 2.98 2.99 3.24 3.29 3.24 3.15 3.05 3.07 3.14 3.07
1.06 1.18 1.07 0.89 0.96 1.23 1.28 1.29 1.43 1.43 1.23 1.20 1.21 1.15 1.17 1.24 1.35 1.50 1.60 1.67 1.68 1.73 1.88 1.89 1.92 2.11 2.39 2.46 2.53 2.58 2.70 2.82 3.00 3.08 3.12 3.07 3.04 3.13 3.13 3.07 2.91 2.73 2.76 2.80
1.40 1.42 1.28 1.12 1.01 1.09 1.16 1.23 1.28 1.41 1.41 1.30 1.24 1.19 1.24 1.27 1.31 1.49 1.63 1.67 1.72 1.68 1.71 1.83 1.93 2.10 2.20 2.24 2.37 2.60 2.71 2.74 2.80 2.88 2.93 2.99 3.07 3.02 2.98 2.98 2.92 2.74 2.72 2.75
1.91 1.96 1.80 1.63 1.40 1.29 1.26 1.28 1.37 1.49 1.55 1.60 1.55 1.47 1.48 1.41 1.41 1.52 1.61 1.59 1.67 1.75 1.78 1.85 1.92 2.07 2.22 2.27 2.32 2.45 2.49 2.44 2.51 2.68 2.77 2.83 2.97 3.03 2.87 2.76 2.79 2.68 2.72 2.88
2.28 2.11 2.12 1.98 1.62 1.46 1.48 1.57 1.57 1.58 1.62 1.60 1.59 1.56 1.58 1.60 1.52 1.44 1.42 1.54 1.69 1.76 1.83 1.86 1.90 1.99 2.04 2.09 2.23 2.38 2.45 2.45 2.44 2.49 2.63 2.72 2.68 2.75 2.77 2.52 2.46 2.31 2.34 2.41
1.93 1.92 1.98 1.88 1.72 1.61 1.65 1.64 1.68 1.74 1.71 1.62 1.56 1.55 1.54 1.60 1.64 1.56 1.50 1.54 1.68 1.72 1.74 1.79 1.79 1.85 1.86 1.93 2.17 2.43 2.53 2.63 2.58 2.39 2.34 2.39 2.40 2.38 2.39 2.30 2.04 1.89 1.85 1.81
1.95 1.97 2.06 1.96 1.93 1.77 1.75 1.64 1.59 1.57 1.49 1.49 1.53 1.55 1.50 1.49 1.60 1.70 1.67 1.68 1.82 1.88 1.75 1.65 1.64 1.70 1.76 1.81 1.93 2.10 2.18 2.26 2.25 2.13 2.06 2.03 2.05 2.04 1.94 1.95 1.89 1.73 1.66 1.61
1.80 1.80 1.92 1.85 1.81 1.81 1.82 1.78 1.68 1.57 1.44 1.50 1.56 1.55 1.59 1.66 1.75 1.86 1.88 1.94 2.00 1.98 1.81 1.64 1.58 1.62 1.67 1.76 1.87 1.91 1.99 2.01 1.93 1.94 1.99 2.03 2.11 2.14 2.05 1.96 1.97 1.92 1.78 1.61
1.64 1.71 1.71 1.79 1.92 1.82 1.76 1.76 1.77 1.70 1.55 1.53 1.58 1.57 1.56 1.65 1.79 1.82 1.84 1.99 2.15 2.14 1.98 1.85 1.72 1.64 1.60 1.73 1.89 1.92 1.89 2.04 1.98 1.85 1.88 2.05 2.18 2.16 2.19 2.24 2.17 2.21 2.17 1.87
1.75 1.79 1.71 1.78 1.90 1.91 1.86 1.80 1.80 1.74 1.69 1.69 1.66 1.56 1.58 1.67 1.79 1.88 1.78 1.75 1.86 1.93 1.91 1.83 1.72 1.60 1.61 1.68 1.75 1.87 1.84 1.89 1.93 1.84 1.87 1.99 2.10 2.19 2.18 2.21 2.28 2.29 2.24 2.04
1.62 1.54 1.52 1.59 1.65 1.73 1.79 1.82 1.83 1.72 1.66 1.64 1.64 1.61 1.63 1.71 1.83 1.89 1.80 1.69 1.63 1.61 1.66 1.64 1.55 1.50 1.54 1.57 1.65 1.81 1.83 1.83 1.85 1.90 1.95 2.00 2.03 2.16 2.32 2.35 2.35 2.39 2.24 2.13
1.59 1.48 1.42 1.43 1.42 1.47 1.59 1.70 1.73 1.68 1.60 1.58 1.62 1.63 1.59 1.57 1.67 1.78 1.76 1.83 1.85 1.75 1.63 1.51 1.45 1.38 1.44 1.50 1.52 1.58 1.62 1.70 1.82 1.88 1.90 1.93 1.97 2.03 2.12 2.18 2.23 2.26 2.10 2.03
1.72 1.64 1.49 1.42 1.41 1.38 1.44 1.48 1.55 1.59 1.52 1.49 1.51 1.53 1.53 1.53 1.63 1.84 1.94 1.98 2.04 1.92 1.74 1.57 1.30 1.22 1.28 1.35 1.33 1.24 1.26 1.34 1.39 1.48 1.59 1.68 1.74 1.85 1.83 1.81 1.86 1.91 1.84 1.81
1.87 1.78 1.64 1.54 1.56 1.49 1.45 1.40 1.44 1.52 1.51 1.53 1.63 1.67 1.60 1.53 1.55 1.79 2.13 2.24 2.07 1.86 1.72 1.65 1.33 1.10 1.02 1.12 1.24 1.21 1.25 1.25 1.24 1.31 1.39 1.48 1.56 1.62 1.69 1.72 1.70 1.66 1.64 1.61
1.94 1.85 1.75 1.63 1.55 1.55 1.50 1.42 1.42 1.47 1.50 1.55 1.53 1.52 1.55 1.49 1.49 1.68 1.87 2.09 1.97 1.81 1.48 1.38 1.24 1.06 1.01 0.99 0.99 1.11 1.21 1.25 1.26 1.29 1.33 1.38 1.45 1.51 1.59 1.59 1.56 1.48 1.46 1.48
1.97 1.83 1.74 1.62 1.54 1.51 1.45 1.45 1.41 1.43 1.46 1.44 1.39 1.46 1.54 1.56 1.51 1.65 1.76 1.59 1.47 1.51 1.35 1.28 1.19 1.05 0.96 0.93 0.96 1.00 1.07 1.14 1.18 1.21 1.22 1.25 1.31 1.36 1.40 1.44 1.44 1.35 1.37 1.40
1.86 1.88 1.90 1.82 1.61 1.50 1.51 1.47 1.45 1.44 1.38 1.38 1.38 1.40 1.45 1.48 1.45 1.38 1.40 1.41 1.40 1.37 1.27 1.27 1.14 0.97 0.86 0.80 0.87 0.96 1.04 1.10 1.11 1.11 1.12 1.17 1.23 1.28 1.36 1.43 1.45 1.38 1.33 1.28
1.78 1.77 1.81 1.82 1.71 1.60 1.52 1.47 1.52 1.55 1.47 1.43 1.37 1.35 1.31 1.32 1.34 1.32 1.30 1.30 1.34 1.27 1.17 1.19 1.13 1.06 0.96 0.94 0.99 1.05 1.09 1.15 1.18 1.17 1.18 1.23 1.27 1.31 1.35 1.40 1.42 1.37 1.33 1.31
1.74 1.69 1.70 1.68 1.59 1.58 1.58 1.57 1.63 1.65 1.57 1.48 1.44 1.37 1.30 1.23 1.25 1.31 1.39 1.36 1.23 1.18 1.09 1.08 1.06 1.08 1.05 1.11 1.17 1.17 1.12 1.14 1.16 1.13 1.19 1.30 1.37 1.38 1.35 1.30 1.31 1.33 1.25 1.20
1.70 1.66 1.67 1.60 1.55 1.51 1.52 1.52 1.57 1.65 1.58 1.48 1.48 1.46 1.43 1.44 1.46 1.45 1.44 1.41 1.31 1.19 1.12 1.08 1.03 0.98 1.00 1.06 1.11 1.16 1.17 1.17 1.17 1.19 1.23 1.28 1.30 1.28 1.22 1.19 1.23 1.25 1.18 1.15